Regional Weather Roundup
Issued by NWS Albany, NY

Home | Current Version | Previous Version | Text Only | Print | Product List | Glossary On
Versions: 1 2 3 4 5 6 7 8 9 10 11 12 13 14 15 16 17 18 19 20 21 22 23 24 25 26 27 28 29 30 31 32 33 34 35 36 37 38 39 40 41 42 43 44 45 46 47 48 49 50
701
ASUS41 KALY 250010
RWRALY

NEW YORK STATE HOURLY WEATHER ROUNDUP
NATIONAL WEATHER SERVICE ALBANY NY
800 PM EDT MON JUL 24 2017

NOTE: "FAIR" INDICATES FEW OR NO CLOUDS BELOW 12,000 FEET WITH NO
SIGNIFICANT WEATHER AND/OR NO OBSTRUCTIONS TO VISIBILITY.

NYZ032-033-038>043-046>054-057>066-NYZ062>081-082-084-250100-
EAST


CITY           SKY/WX    TMP DP  RH WIND       PRES   REMARKS
ALBANY         CLOUDY    64  56  75 SE5       29.89F
GLENS FALLS    CLOUDY    60  55  83 N8        29.92S
POUGHKEEPSIE   CLOUDY    63  55  75 E7        29.89R
NEWBURGH       CLOUDY    64  59  82 E9        29.91R
MONTGOMERY     CLOUDY    65  62  90 NE6       29.89R
WHITE PLAINS   MOCLDY    64  57  78 E9        29.89R
ISLIP          CLOUDY    64  59  83 N10       29.89R
NEW YORK CITY  PTCLDY    67  60  78 E13       29.87S
CENTRAL PARK   PTCLDY    67  59  75 E7        29.90S
$$

NYZ005>009-017-018-044>046-055-056-250100-
CENTRAL


CITY           SKY/WX    TMP DP  RH WIND       PRES   REMARKS
FULTON         CLOUDY    65  61  87 SE5       29.85R
SYRACUSE       CLOUDY    62  60  93 E7        29.86R
ROME           CLOUDY    63  57  81 E8        29.88R
ELMIRA         CLOUDY    73  60  63 W9        29.84R
BINGHAMTON     NOT AVBL
$$

NYZ026>034-041>043-087-250100-
NORTH


CITY           SKY/WX    TMP DP  RH WIND       PRES   REMARKS
WATERTOWN      CLOUDY    67  63  87 SW6       29.82R
FORT DRUM      NOT AVBL
OGDENSBURG     CLOUDY    61  59  94 E7        29.84S
MASSENA        CLOUDY    59  58  96 NE16G23   29.90S
SARANAC LAKE   CLOUDY    57  55  93 E5        29.90R
PLATTSBURGH    CLOUDY    59  57  93 CALM      29.94R
$$

NYZ001>004-010>016-019>021-085-250100-
WEST


CITY           SKY/WX    TMP DP  RH WIND       PRES   REMARKS
NIAGARA FALLS  LGT RAIN  66  60  81 N8        29.89R
BUFFALO        LGT RAIN  64  61  90 N12G17    29.89R FOG
DUNKIRK        CLOUDY    66  60  81 NW13G20   29.92R
JAMESTOWN      CLOUDY    61  55  82 W9        29.95R
WELLSVILLE     CLOUDY    65  56  72 W14G20    29.94R
ROCHESTER      CLOUDY    66  63  90 N10       29.86R
PENN YAN       CLOUDY    70  63  78 CALM      29.87R
$$

             KEY
       WCI = WIND CHILL INDEX
       VSB = VISIBILITY
       HX  = HEAT INDEX
$$




USA.gov is the U.S. government's official web portal to all federal, state and local government web resources and services.